GW7015 Weather Reports


time (UTC)temp
C
wind
direction
speed
KPH
gust
KPH
rain 1hr
cm
rain 24hr
cm
rain mn
cm
humidity
%
barometer
mb
20260508004507 10 214 0.0 3.2 0.00 0.86 0.79 83 1006.4
20260508003010 10 249 0.0 0.0 0.00 0.91 0.79 82 1006.0
20260508001516 10 249 0.0 0.0 0.00 0.94 0.79 81 1006.0
20260508000022 11 249 0.0 0.0 0.00 0.97 0.79 79 1006.0
20260507234504 12 250 0.0 0.0 0.00 1.02 0.79 79 1006.1
20260507233008 12 123 0.0 0.0 0.00 1.07 0.79 79 1006.0
20260507231516 13 123 0.0 3.2 0.00 1.12 0.79 75 1005.8
20260507230016 13 136 0.0 6.4 0.00 1.14 0.79 75 1005.8
20260507224523 15 257 1.6 8.0 0.00 1.14 0.79 70 1005.7
20260507223007 15 229 3.2 8.0 0.00 1.14 0.79 67 1005.7
20260507221511 16 252 3.2 9.7 0.00 1.14 0.79 66 1005.8
20260507220013 16 231 4.8 11.3 0.00 1.14 0.79 63 1005.8
20260507214519 16 91 4.8 9.7 0.00 1.14 0.79 67 1005.7
20260507213022 16 212 4.8 12.9 0.00 1.14 0.79 66 1005.8
20260507211512 15 282 3.2 8.0 0.00 1.14 0.79 68 1005.6
20260507210012 14 7 3.2 8.0 0.00 1.14 0.79 74 1005.6
20260507204516 14 198 4.8 9.7 0.00 1.14 0.79 74 1005.4
20260507203020 14 47 3.2 14.5 0.00 1.14 0.79 73 1005.3
20260507201528 13 163 8.0 19.3 0.00 1.14 0.79 74 1005.4
20260507200009 13 175 8.0 16.1 0.00 1.14 0.79 72 1005.4
20260507194519 13 48 6.4 12.9 0.00 1.14 0.79 71 1005.7
20260507193025 13 160 4.8 14.5 0.00 1.14 0.79 72 1005.9
20260507191524 14 110 9.7 16.1 0.00 1.14 0.79 66 1006.3
20260507190008 15 104 3.2 9.7 0.00 1.14 0.79 68 1006.2
20260507184512 15 70 3.2 9.7 0.00 1.14 0.79 62 1006.4
20260507183006 15 112 6.4 9.7 0.00 1.14 0.79 64 1006.5
20260507181510 15 333 3.2 9.7 0.00 1.14 0.79 66 1006.5
20260507180004 15 207 1.6 8.0 0.00 1.14 0.79 64 1006.9
20260507174513 15 162 1.6 8.0 0.00 1.14 0.79 64 1007.0
20260507173014 15 224 4.8 9.7 0.00 1.14 0.79 64 1007.0
20260507171503 14 297 4.8 9.7 0.00 1.14 0.79 67 1007.2
20260507170004 14 297 4.8 11.3 0.00 1.14 0.79 68 1007.5
20260507164507 14 329 3.2 12.9 0.00 1.14 0.79 74 1007.4
20260507163011 13 260 4.8 11.3 0.00 1.14 0.79 70 1007.5
20260507161514 13 276 3.2 9.7 0.00 1.14 0.79 73 1007.4
20260507160028 13 321 4.8 11.3 0.00 1.14 0.79 75 1007.6
20260507154506 13 77 4.8 11.3 0.00 1.14 0.79 76 1007.9
20260507153007 12 112 3.2 9.7 0.00 1.14 0.79 81 1007.9
20260507151510 11 307 1.6 8.0 0.03 1.14 0.79 90 1007.8
20260507150018 11 273 1.6 9.7 0.03 1.14 0.79 87 1008.0
20260507144522 10 297 3.2 9.7 0.03 1.14 0.79 90 1008.1
20260507143013 10 233 3.2 8.0 0.03 1.14 0.79 91 1008.1
20260507141516 10 302 3.2 6.4 0.00 1.12 0.76 91 1007.8
20260507140014 9 56 3.2 12.9 0.00 1.12 0.76 91 1007.9
20260507134520 9 287 4.8 8.0 0.03 1.12 0.76 92 1007.7
20260507133024 8 317 1.6 4.8 0.05 1.12 0.76 94 1007.6
20260507131510 8 290 3.2 6.4 0.05 1.12 0.76 94 1008.1
20260507130026 8 278 1.6 6.4 0.05 1.12 0.76 94 1008.1
20260507124517 8 296 1.6 4.8 0.05 1.09 0.74 94 1007.9
20260507123022 8 290 3.2 6.4 0.03 1.07 0.71 94 1008.0
20260507121522 8 321 3.2 14.5 0.05 1.07 0.71 94 1007.6
20260507120008 8 349 4.8 12.9 0.05 1.07 0.71 93 1008.1
20260507114522 8 300 4.8 8.0 0.03 1.04 0.69 94 1008.2
20260507113017 9 340 1.6 6.4 0.05 1.04 0.69 94 1007.3
20260507111522 9 112 4.8 16.1 0.05 1.02 0.66 94 1007.4
20260507110027 9 319 4.8 9.7 0.08 1.02 0.66 95 1007.6
20260507104508 9 338 3.2 12.9 0.28 1.02 0.66 95 1007.2
20260507103014 9 266 4.8 14.5 0.38 0.99 0.64 95 1007.2
20260507101522 10 300 3.2 11.3 0.43 0.97 0.61 95 1006.9
20260507100032 10 334 6.4 14.5 0.51 0.94 0.58 95 1006.3
20260507094506 11 8 4.8 8.0 0.38 0.74 0.38 96 1006.4
20260507093012 11 287 3.2 9.7 0.25 0.61 0.25 95 1006.3
20260507091519 12 242 4.8 9.7 0.18 0.53 0.18 95 1006.7
20260507090023 12 217 4.8 9.7 0.08 0.43 0.08 95 1007.1
20260507084505 12 285 1.6 6.4 0.00 0.36 0.00 96 1006.4
20260507083008 12 224 3.2 6.4 0.00 0.36 0.00 96 1005.7
20260507081513 12 245 3.2 9.7 0.00 0.36 0.00 96 1005.6
20260507080020 13 248 1.6 9.7 0.00 0.36 0.00 96 1005.7
20260507074524 12 255 1.6 8.0 0.00 0.36 0.00 96 1006.0
20260507073030 12 240 4.8 11.3 0.00 0.36 0.00 96 1006.0
20260507071516 12 223 4.8 14.5 0.00 0.36 0.00 95 1006.4
20260507070016 12 247 4.8 12.9 0.00 0.36 0.00 95 1006.0
20260507064531 12 226 3.2 14.5 0.00 0.36 0.00 95 1006.3
20260507063026 12 174 3.2 11.3 0.00 0.36 0.00 95 1006.4
20260507061529 13 221 3.2 17.7 0.00 0.36 0.00 95 1006.3
20260507060012 13 279 4.8 17.7 0.00 0.36 0.00 95 1006.2
20260507054516 13 188 3.2 20.9 0.00 0.36 0.00 95 1006.5
20260507053024 13 240 4.8 27.4 0.00 0.36 0.00 95 1006.9
20260507051524 13 259 11.3 19.3 0.00 0.36 0.00 95 1007.1
20260507050038 13 218 6.4 16.1 0.00 0.36 0.00 95 1007.0
20260507044516 13 243 6.4 20.9 0.00 0.36 0.00 95 1007.1
20260507043022 13 228 6.4 19.3 0.00 0.36 0.00 95 1007.2
20260507041526 13 208 6.4 19.3 0.00 0.36 0.00 95 1007.6
20260507040029 13 239 6.4 22.5 0.00 0.36 0.00 95 1007.4
20260507034529 13 242 9.7 24.1 0.00 0.36 0.36 95 1007.7
20260507033020 13 136 8.0 32.2 0.00 0.36 0.36 95 1007.3
20260507031521 13 272 8.0 22.5 0.00 0.36 0.36 95 1007.0
20260507030029 13 154 6.4 29.0 0.00 0.36 0.36 95 1007.3
20260507024515 13 120 8.0 22.5 0.00 0.36 0.36 95 1007.7
20260507023015 13 246 11.3 29.0 0.00 0.36 0.36 95 1007.9
20260507021516 13 227 6.4 22.5 0.00 0.36 0.36 94 1008.1
20260507020005 13 232 11.3 22.5 0.03 0.36 0.36 94 1008.3
20260507014512 13 131 8.0 33.8 0.08 0.36 0.36 94 1008.5
20260507013015 13 238 8.0 29.0 0.13 0.36 0.36 94 1008.4
20260507011517 13 252 8.0 20.9 0.15 0.36 0.36 94 1008.6
20260507010023 13 240 9.7 29.0 0.15 0.33 0.33 94 1008.7